轨道通信卫星FM04星 (ORBCOMM FM04)

导读

ORBCOMM FM 4是ORBCOMM低轨卫星星座的一员,于1998年2月10日成功发射。作为专门服务于机器对机器通信和物联网应用的卫星,它运行在近地轨道,依托窄带通信技术,可实现全球范围低成本短数据传输,提供寻呼、远程监控、数据采集等服务,在民用基础设施监测和军事战场信息传输等领域都具备应用价值。

基本信息
目录编号:
25159
目录名称:
ORBCOMM FM 4
国际标识:
1998-007C
轨道中心:
EARTH
卫星名称:
轨道通信卫星FM04星
卫星全名:
轨道通信卫星FM04星 (ORBCOMM FM04)
卫星状态:
在轨 (已飞行10440 天)
发射日期:
1998-02-10 UTC
国别 :
(ORB)
星等 :
--
该卫星已列入 空间交会检测服务 Space Conjunction Data Service (SCDS) ,当前飞行风险评估等级: 无高风险
轨道信息
数据来源 国际轨道数据
星历时间: 2026-09-11T13:30:12+0800
9小时前
查看轨道信息
半长轴: 7150.355km
偏心率: 0.004076
轨道倾角: 107.960°
近地点辐角 178.461°
升交点赤经 346.509°
平近点角 181.666°
近地点: 743.073km
远地点: 801.363km
周期: 100.288分钟
每日圈数: 14.358577
详细信息
固有亮度:
8
最大亮度:
6.9
平衡模式:
三轴稳定
覆盖范围:
全球
运营商:
轨道通信公司
运营商所在国:
美国
制造商(研发单位):
轨道ATK公司
制造商所在国:
美国
使用方式:
暂无
卫星简介
轨道通信FM(Orbcomm FM)是一系列低地球轨道通信卫星,由美国卫星通信公司 Orbcomm运营。 截至2015年12月,已有63颗此类卫星绕地球运行。该卫星仍在工作。
2D轨道图
3D轨道图
轨道高度分析图
轨道倾角分析图
轨道综合分析图
查看轨道综合分析图
交会数据列表
事件ID 空间交会对象 最接近时刻(TCA) 交会距离 交会风险概率(CRP) 交会风险指数(CRI) 操作
CDM_260904-132302-515903-753725
2026-09-04T
13:23:15+0000
2.255 km
极远距离
2.150254E-6 低风险 0.42
CDM_260914-030602-515902-547621
2026-09-14T
03:06:01+0000
2.385 km
极远距离
1.633678E-6 低风险 0.39
CDM_260912-164702-515904-905022
2026-09-12T
16:47:02+0000
2.005 km
极远距离
1.571604E-6 低风险 0.39
与全量物体交会距离演化趋势
与全量物体交会风险概率演化趋势